カタログに戻る

STARLINK-3811

運用中通信VLEO
NORAD 52383·PAYLOAD·🇺🇸 United States

打ち上げ Apr 29, 2022 から Cape Canaveral Space Force Station

Loading…

次のパス (今後24時間)

TLE

最新Source: CelesTrak SupGP

元期: Sep 15, 2026, 03:03 UTC

1 52383C 22045BE  26258.12756944 -.00007647  00000+0 -23206-3 0  2584
2 52383  53.1586  34.9272 0001128  89.0748 160.1053 15.33551504    15

AllMySatでSTARLINK-3811をリアルタイム追跡

Download on the App Store